Time,TemperatureF,DewpointF,PressureIn,WindDirection,WindDirectionDegrees,WindSpeedMPH,WindSpeedGustMPH,Humidity,HourlyPrecipIn,Conditions,Clouds,dailyrainin,SoftwareType,DateUTC
2013-11-30 00:00:00,31.2,21.9,29.51,North,353,0.0,0.0,68,0.00,,---,0.00,VWS V12.08,2013-11-30 06:00:00,
2013-11-30 00:05:00,31.2,21.9,29.50,SSE,165,0.0,0.0,68,0.00,,---,0.00,VWS V12.08,2013-11-30 06:05:00,
2013-11-30 00:10:00,31.1,21.8,29.50,SW,221,0.0,0.0,68,0.00,,---,0.00,VWS V12.08,2013-11-30 06:10:00,
2013-11-30 00:15:00,31.1,21.8,29.50,NW,308,0.0,0.0,68,0.00,,---,0.00,VWS V12.08,2013-11-30 06:15:00,
2013-11-30 00:20:00,31.1,21.8,29.50,SSE,154,0.0,0.0,68,0.00,,---,0.00,VWS V12.08,2013-11-30 06:20:00,
2013-11-30 00:25:00,31.0,21.7,29.49,West,267,0.0,0.0,68,0.00,,---,0.00,VWS V12.08,2013-11-30 06:25:00,
2013-11-30 00:31:00,31.0,21.7,29.50,West,266,0.0,0.0,68,0.00,,---,0.00,VWS V12.08,2013-11-30 06:31:00,
2013-11-30 00:36:00,31.0,21.7,29.49,NW,326,0.0,0.0,68,0.00,,---,0.00,VWS V12.08,2013-11-30 06:36:00,
2013-11-30 00:41:00,31.0,21.7,29.48,NW,321,0.0,0.0,68,0.00,,---,0.00,VWS V12.08,2013-11-30 06:41:00,
2013-11-30 00:46:00,31.0,21.7,29.49,South,179,0.0,0.0,68,0.00,,---,0.00,VWS V12.08,2013-11-30 06:46:00,
2013-11-30 00:52:00,31.0,21.7,29.48,South,176,0.0,0.0,68,0.00,,---,0.00,VWS V12.08,2013-11-30 06:52:00,
2013-11-30 00:57:00,30.9,21.6,29.48,NNW,328,0.0,0.0,68,0.00,,---,0.00,VWS V12.08,2013-11-30 06:57:00,
2013-11-30 01:02:00,30.9,21.6,29.48,NW,315,0.0,0.0,68,0.00,,---,0.00,VWS V12.08,2013-11-30 07:02:00,
2013-11-30 01:07:00,30.8,21.5,29.48,WSW,251,0.0,0.0,68,0.00,,---,0.00,VWS V12.08,2013-11-30 07:07:00,
2013-11-30 01:12:00,30.8,21.9,29.47,South,176,0.0,0.0,69,0.00,,---,0.00,VWS V12.08,2013-11-30 07:12:00,
2013-11-30 01:17:00,30.7,21.8,29.47,SSE,167,0.0,0.0,69,0.00,,---,0.00,VWS V12.08,2013-11-30 07:17:00,
2013-11-30 01:22:00,30.6,21.6,29.47,West,279,0.0,0.0,69,0.00,,---,0.00,VWS V12.08,2013-11-30 07:22:00,
2013-11-30 01:28:00,30.5,21.6,29.47,West,272,0.0,0.0,69,0.00,,---,0.00,VWS V12.08,2013-11-30 07:28:00,
2013-11-30 01:33:00,30.5,21.6,29.47,NNW,340,0.0,0.0,69,0.00,,---,0.00,VWS V12.08,2013-11-30 07:33:00,
2013-11-30 01:38:00,30.4,21.5,29.46,NNW,330,0.0,0.0,69,0.00,,---,0.00,VWS V12.08,2013-11-30 07:38:00,
2013-11-30 01:43:00,30.4,21.5,29.46,NW,306,0.0,0.0,69,0.00,,---,0.00,VWS V12.08,2013-11-30 07:43:00,
2013-11-30 01:48:00,30.3,21.7,29.47,WNW,288,0.0,0.0,70,0.00,,---,0.00,VWS V12.08,2013-11-30 07:48:00,
2013-11-30 01:53:00,30.3,21.7,29.46,South,181,0.0,0.0,70,0.00,,---,0.00,VWS V12.08,2013-11-30 07:53:00,
2013-11-30 01:58:00,30.2,21.6,29.46,SW,232,0.0,0.0,70,0.00,,---,0.00,VWS V12.08,2013-11-30 07:58:00,
2013-11-30 02:03:00,30.1,21.5,29.47,NW,319,0.0,0.0,70,0.00,,---,0.00,VWS V12.08,2013-11-30 08:03:00,
2013-11-30 02:08:00,29.9,21.7,29.46,ENE,59,0.0,0.0,71,0.00,,---,0.00,VWS V12.08,2013-11-30 08:08:00,
2013-11-30 02:13:00,29.9,21.7,29.46,NNW,339,0.0,0.0,71,0.00,,---,0.00,VWS V12.08,2013-11-30 08:13:00,
2013-11-30 02:18:00,29.8,21.6,29.45,WSW,246,0.0,0.0,71,0.00,,---,0.00,VWS V12.08,2013-11-30 08:18:00,
2013-11-30 02:23:00,29.8,21.6,29.45,SW,234,0.0,0.0,71,0.00,,---,0.00,VWS V12.08,2013-11-30 08:23:00,
2013-11-30 02:28:00,29.7,21.5,29.45,SW,217,0.0,1.0,71,0.00,,---,0.00,VWS V12.08,2013-11-30 08:28:00,
2013-11-30 02:33:00,29.7,21.8,29.45,North,353,0.0,0.0,72,0.00,,---,0.00,VWS V12.08,2013-11-30 08:33:00,
2013-11-30 02:38:00,29.6,21.7,29.45,SSE,150,0.0,0.0,72,0.00,,---,0.00,VWS V12.08,2013-11-30 08:38:00,
2013-11-30 02:43:00,29.6,21.7,29.44,SSW,212,0.0,0.0,72,0.00,,---,0.00,VWS V12.08,2013-11-30 08:43:00,
2013-11-30 02:48:00,29.5,21.6,29.44,North,349,0.0,0.0,72,0.00,,---,0.00,VWS V12.08,2013-11-30 08:48:00,
2013-11-30 02:53:00,29.5,21.6,29.44,WNW,294,0.0,0.0,72,0.00,,---,0.00,VWS V12.08,2013-11-30 08:53:00,
2013-11-30 02:58:00,29.4,21.5,29.44,NW,311,0.0,0.0,72,0.00,,---,0.00,VWS V12.08,2013-11-30 08:58:00,
2013-11-30 03:03:00,29.4,21.5,29.44,NW,313,0.0,0.0,72,0.00,,---,0.00,VWS V12.08,2013-11-30 09:03:00,
2013-11-30 03:08:00,29.4,21.5,29.44,SW,214,0.0,0.0,72,0.00,,---,0.00,VWS V12.08,2013-11-30 09:08:00,
2013-11-30 03:13:00,29.4,21.8,29.44,WNW,289,0.0,0.0,73,0.00,,---,0.00,VWS V12.08,2013-11-30 09:13:00,
2013-11-30 03:18:00,29.3,21.7,29.44,WSW,240,0.0,0.0,73,0.00,,---,0.00,VWS V12.08,2013-11-30 09:18:00,
2013-11-30 03:23:00,29.3,21.7,29.43,NW,324,0.0,0.0,73,0.00,,---,0.00,VWS V12.08,2013-11-30 09:23:00,
2013-11-30 03:28:00,29.3,21.7,29.43,WSW,242,0.0,0.0,73,0.00,,---,0.00,VWS V12.08,2013-11-30 09:28:00,
2013-11-30 03:33:00,29.3,21.7,29.43,SSE,163,0.0,0.0,73,0.00,,---,0.00,VWS V12.08,2013-11-30 09:33:00,
2013-11-30 03:38:00,29.3,21.7,29.42,South,187,0.0,0.0,73,0.00,,---,0.00,VWS V12.08,2013-11-30 09:38:00,
2013-11-30 03:43:00,29.2,21.6,29.42,West,273,0.0,0.0,73,0.00,,---,0.00,VWS V12.08,2013-11-30 09:43:00,
2013-11-30 03:48:00,29.2,21.6,29.42,NNW,331,0.0,0.0,73,0.00,,---,0.00,VWS V12.08,2013-11-30 09:48:00,
2013-11-30 03:53:00,29.3,22.1,29.42,NNW,346,0.0,0.0,74,0.00,,---,0.00,VWS V12.08,2013-11-30 09:53:00,
2013-11-30 03:58:00,29.3,22.1,29.42,NNW,342,0.0,0.0,74,0.00,,---,0.00,VWS V12.08,2013-11-30 09:58:00,
2013-11-30 04:03:00,29.3,22.1,29.42,SW,225,0.0,0.0,74,0.00,,---,0.00,VWS V12.08,2013-11-30 10:03:00,
2013-11-30 04:09:00,29.3,22.1,29.42,SSE,160,0.0,0.0,74,0.00,,---,0.00,VWS V12.08,2013-11-30 10:09:00,
2013-11-30 04:15:00,29.3,22.1,29.42,SE,125,0.0,0.0,74,0.00,,---,0.00,VWS V12.08,2013-11-30 10:15:00,
2013-11-30 04:20:00,29.3,22.1,29.42,WSW,244,0.0,0.0,74,0.00,,---,0.00,VWS V12.08,2013-11-30 10:20:00,
2013-11-30 04:25:00,29.3,22.1,29.42,NNW,330,0.0,0.0,74,0.00,,---,0.00,VWS V12.08,2013-11-30 10:25:00,
2013-11-30 04:30:00,29.3,22.4,29.42,WSW,247,0.0,0.0,75,0.00,,---,0.00,VWS V12.08,2013-11-30 10:30:00,
2013-11-30 04:35:00,29.3,22.4,29.42,North,356,0.0,0.0,75,0.00,,---,0.00,VWS V12.08,2013-11-30 10:35:00,
2013-11-30 04:40:00,29.4,22.5,29.42,NW,315,0.0,0.0,75,0.00,,---,0.00,VWS V12.08,2013-11-30 10:40:00,
2013-11-30 04:45:00,29.4,22.5,29.42,NNW,330,0.0,0.0,75,0.00,,---,0.00,VWS V12.08,2013-11-30 10:45:00,
2013-11-30 04:50:00,29.3,22.4,29.42,WNW,285,0.0,0.0,75,0.00,,---,0.00,VWS V12.08,2013-11-30 10:50:00,
2013-11-30 04:55:00,29.3,22.4,29.42,WNW,289,0.0,0.0,75,0.00,,---,0.00,VWS V12.08,2013-11-30 10:55:00,
2013-11-30 05:00:00,29.3,22.4,29.41,ENE,62,0.0,0.0,75,0.00,,---,0.00,VWS V12.08,2013-11-30 11:00:00,
2013-11-30 05:05:00,29.3,22.4,29.41,North,359,0.0,0.0,75,0.00,,---,0.00,VWS V12.08,2013-11-30 11:05:00,
2013-11-30 05:10:00,29.3,22.4,29.42,West,267,0.0,0.0,75,0.00,,---,0.00,VWS V12.08,2013-11-30 11:10:00,
2013-11-30 05:16:00,29.4,22.5,29.41,South,189,0.0,0.0,75,0.00,,---,0.00,VWS V12.08,2013-11-30 11:16:00,
2013-11-30 05:22:00,29.4,22.5,29.41,SW,223,0.0,0.0,75,0.00,,---,0.00,VWS V12.08,2013-11-30 11:22:00,
2013-11-30 05:27:00,29.5,22.6,29.41,SSW,211,0.0,0.0,75,0.00,,---,0.00,VWS V12.08,2013-11-30 11:27:00,
2013-11-30 05:32:00,29.5,22.6,29.41,West,278,0.0,0.0,75,0.00,,---,0.00,VWS V12.08,2013-11-30 11:32:00,
2013-11-30 05:37:00,29.5,22.6,29.40,NW,309,0.0,0.0,75,0.00,,---,0.00,VWS V12.08,2013-11-30 11:37:00,
2013-11-30 05:42:00,29.5,22.6,29.40,NW,326,0.0,0.0,75,0.00,,---,0.00,VWS V12.08,2013-11-30 11:42:00,
2013-11-30 05:47:00,29.5,22.6,29.40,SSW,211,0.0,0.0,75,0.00,,---,0.00,VWS V12.08,2013-11-30 11:47:00,
2013-11-30 05:52:00,29.4,22.8,29.40,South,172,0.0,0.0,76,0.00,,---,0.00,VWS V12.08,2013-11-30 11:52:00,
2013-11-30 05:57:00,29.4,22.8,29.40,NE,54,0.0,1.0,76,0.00,,---,0.00,VWS V12.08,2013-11-30 11:57:00,
2013-11-30 06:02:00,29.4,22.8,29.40,West,261,0.0,0.0,76,0.00,,---,0.00,VWS V12.08,2013-11-30 12:02:00,
2013-11-30 06:07:00,29.3,22.7,29.40,South,180,0.0,0.0,76,0.00,,---,0.00,VWS V12.08,2013-11-30 12:07:00,
2013-11-30 06:12:00,29.4,22.8,29.40,West,276,0.0,0.0,76,0.00,,---,0.00,VWS V12.08,2013-11-30 12:12:00,
2013-11-30 06:17:00,29.3,22.7,29.39,SW,218,0.0,0.0,76,0.00,,---,0.00,VWS V12.08,2013-11-30 12:17:00,
2013-11-30 06:23:00,29.3,22.7,29.40,WSW,250,0.0,0.0,76,0.00,,---,0.00,VWS V12.08,2013-11-30 12:23:00,
2013-11-30 06:28:00,29.3,22.7,29.40,SSW,208,0.0,1.0,76,0.00,,---,0.00,VWS V12.08,2013-11-30 12:28:00,
2013-11-30 06:33:00,29.3,22.7,29.40,West,266,0.0,0.0,76,0.00,,---,0.00,VWS V12.08,2013-11-30 12:33:00,
2013-11-30 06:39:00,29.3,22.7,29.40,WSW,252,0.0,0.0,76,0.00,,---,0.00,VWS V12.08,2013-11-30 12:39:00,
2013-11-30 06:44:00,29.4,22.8,29.40,WSW,257,0.0,0.0,76,0.00,,---,0.00,VWS V12.08,2013-11-30 12:44:00,
2013-11-30 06:49:00,29.4,22.8,29.40,West,281,0.0,1.0,76,0.00,,---,0.00,VWS V12.08,2013-11-30 12:49:00,
2013-11-30 06:54:00,29.4,22.8,29.40,NW,308,0.0,1.0,76,0.00,,---,0.00,VWS V12.08,2013-11-30 12:54:00,
2013-11-30 06:59:00,29.4,22.8,29.39,West,264,0.0,1.0,76,0.00,,---,0.00,VWS V12.08,2013-11-30 12:59:00,
2013-11-30 07:04:00,29.3,22.7,29.39,WSW,246,0.0,0.0,76,0.00,,---,0.00,VWS V12.08,2013-11-30 13:04:00,
2013-11-30 07:09:00,29.3,22.7,29.39,WSW,254,0.0,0.0,76,0.00,,---,0.00,VWS V12.08,2013-11-30 13:09:00,
2013-11-30 07:14:00,29.3,23.0,29.39,NE,51,0.0,0.0,77,0.00,,---,0.00,VWS V12.08,2013-11-30 13:14:00,
2013-11-30 07:19:00,29.3,22.7,29.39,SW,223,0.0,0.0,76,0.00,,---,0.00,VWS V12.08,2013-11-30 13:19:00,
2013-11-30 07:24:00,29.3,23.0,29.39,South,169,0.0,0.0,77,0.00,,---,0.00,VWS V12.08,2013-11-30 13:24:00,
2013-11-30 07:29:00,29.4,23.1,29.39,SW,232,0.0,0.0,77,0.00,,---,0.00,VWS V12.08,2013-11-30 13:29:00,
2013-11-30 07:35:00,29.5,23.2,29.39,WNW,294,0.0,0.0,77,0.00,,---,0.00,VWS V12.08,2013-11-30 13:35:00,
2013-11-30 07:40:00,29.8,23.5,29.39,WSW,257,0.0,0.0,77,0.00,,---,0.00,VWS V12.08,2013-11-30 13:40:00,
2013-11-30 07:45:00,30.0,23.7,29.39,SW,215,0.0,0.0,77,0.00,,---,0.00,VWS V12.08,2013-11-30 13:45:00,
2013-11-30 07:50:00,30.3,24.0,29.38,West,279,0.0,0.0,77,0.00,,---,0.00,VWS V12.08,2013-11-30 13:50:00,
2013-11-30 07:55:00,30.6,24.3,29.39,SW,232,0.0,0.0,77,0.00,,---,0.00,VWS V12.08,2013-11-30 13:55:00,
2013-11-30 08:00:00,31.0,24.3,29.39,SW,227,0.0,0.0,76,0.00,,---,0.00,VWS V12.08,2013-11-30 14:00:00,
2013-11-30 08:05:00,31.3,24.6,29.39,South,181,0.0,0.0,76,0.00,,---,0.00,VWS V12.08,2013-11-30 14:05:00,
2013-11-30 08:10:00,31.7,24.7,29.39,South,179,0.0,0.0,75,0.00,,---,0.00,VWS V12.08,2013-11-30 14:10:00,
2013-11-30 08:15:00,32.0,25.0,29.39,SSE,166,0.0,0.0,75,0.00,,---,0.00,VWS V12.08,2013-11-30 14:15:00,
2013-11-30 08:20:00,32.4,25.4,29.38,WNW,290,0.0,0.0,75,0.00,,---,0.00,VWS V12.08,2013-11-30 14:20:00,
2013-11-30 08:25:00,32.7,25.3,29.39,WSW,242,0.0,0.0,74,0.00,,---,0.00,VWS V12.08,2013-11-30 14:25:00,
2013-11-30 08:30:00,33.2,25.5,29.39,NW,325,0.0,0.0,73,0.00,,---,0.00,VWS V12.08,2013-11-30 14:30:00,
2013-11-30 08:35:00,33.6,25.9,29.38,NNW,338,0.0,0.0,73,0.00,,---,0.00,VWS V12.08,2013-11-30 14:35:00,
2013-11-30 08:41:00,34.1,26.4,29.37,SSW,192,0.0,1.0,73,0.00,,---,0.00,VWS V12.08,2013-11-30 14:41:00,
2013-11-30 08:47:00,34.6,26.5,29.39,West,261,0.0,1.0,72,0.00,,---,0.00,VWS V12.08,2013-11-30 14:47:00,
2013-11-30 08:52:00,35.0,26.9,29.38,South,186,0.0,1.0,72,0.00,,---,0.00,VWS V12.08,2013-11-30 14:52:00,
2013-11-30 08:57:00,35.4,27.0,29.39,North,357,0.0,1.0,71,0.00,,---,0.00,VWS V12.08,2013-11-30 14:57:00,
2013-11-30 09:02:00,35.8,27.3,29.39,WNW,286,0.0,0.0,71,0.00,,---,0.00,VWS V12.08,2013-11-30 15:02:00,
2013-11-30 09:07:00,36.1,27.3,29.38,NNW,342,0.0,0.0,70,0.00,,---,0.00,VWS V12.08,2013-11-30 15:07:00,
2013-11-30 09:13:00,36.5,27.7,29.39,NNW,348,0.0,0.0,70,0.00,,---,0.00,VWS V12.08,2013-11-30 15:13:00,
2013-11-30 09:18:00,36.8,27.6,29.39,North,352,0.0,1.0,69,0.00,,---,0.00,VWS V12.08,2013-11-30 15:18:00,
2013-11-30 09:23:00,37.1,27.9,29.39,WSW,252,0.0,1.0,69,0.00,,---,0.00,VWS V12.08,2013-11-30 15:23:00,
2013-11-30 09:28:00,37.5,28.3,29.39,North,349,0.0,1.0,69,0.00,,---,0.00,VWS V12.08,2013-11-30 15:28:00,
2013-11-30 09:33:00,38.0,28.4,29.39,NW,323,0.0,1.0,68,0.00,,---,0.00,VWS V12.08,2013-11-30 15:33:00,
2013-11-30 09:39:00,38.5,28.5,29.38,North,353,0.0,1.0,67,0.00,,---,0.00,VWS V12.08,2013-11-30 15:39:00,
2013-11-30 09:44:00,39.1,29.1,29.39,NNW,346,0.0,1.0,67,0.00,,---,0.00,VWS V12.08,2013-11-30 15:44:00,
2013-11-30 09:49:00,39.6,29.2,29.39,WNW,292,0.0,1.0,66,0.00,,---,0.00,VWS V12.08,2013-11-30 15:49:00,
2013-11-30 09:54:00,40.0,29.2,29.39,North,359,0.0,1.0,65,0.00,,---,0.00,VWS V12.08,2013-11-30 15:54:00,
2013-11-30 09:59:00,40.5,29.3,29.40,NW,304,0.0,2.0,64,0.00,,---,0.00,VWS V12.08,2013-11-30 15:59:00,
2013-11-30 10:04:00,40.8,29.6,29.40,West,264,0.0,1.0,64,0.00,,---,0.00,VWS V12.08,2013-11-30 16:04:00,
2013-11-30 10:10:00,41.2,29.6,29.39,NNW,327,0.0,1.0,63,0.00,,---,0.00,VWS V12.08,2013-11-30 16:10:00,
2013-11-30 10:15:00,41.4,29.8,29.39,West,280,0.0,1.0,63,0.00,,---,0.00,VWS V12.08,2013-11-30 16:15:00,
2013-11-30 10:20:00,41.9,29.9,29.39,West,263,0.0,2.0,62,0.00,,---,0.00,VWS V12.08,2013-11-30 16:20:00,
2013-11-30 10:25:00,42.2,29.7,29.39,North,351,0.0,2.0,61,0.00,,---,0.00,VWS V12.08,2013-11-30 16:25:00,
2013-11-30 10:31:00,42.6,30.1,29.39,NNW,343,0.0,1.0,61,0.00,,---,0.00,VWS V12.08,2013-11-30 16:31:00,
2013-11-30 10:36:00,42.8,29.9,29.39,NW,316,0.0,1.0,60,0.00,,---,0.00,VWS V12.08,2013-11-30 16:36:00,
2013-11-30 10:41:00,43.0,29.7,29.39,NW,314,0.0,1.0,59,0.00,,---,0.00,VWS V12.08,2013-11-30 16:41:00,
2013-11-30 10:46:00,43.1,29.8,29.38,NNW,341,0.0,1.0,59,0.00,,---,0.00,VWS V12.08,2013-11-30 16:46:00,
2013-11-30 10:52:00,43.3,30.0,29.37,North,351,0.0,2.0,59,0.00,,---,0.00,VWS V12.08,2013-11-30 16:52:00,
2013-11-30 10:58:00,43.6,29.8,29.37,NW,309,0.0,2.0,58,0.00,,---,0.00,VWS V12.08,2013-11-30 16:58:00,
2013-11-30 11:03:00,43.8,30.0,29.37,NNW,344,0.0,1.0,58,0.00,,---,0.00,VWS V12.08,2013-11-30 17:03:00,
2013-11-30 11:08:00,44.1,29.9,29.36,WNW,286,0.0,1.0,57,0.00,,---,0.00,VWS V12.08,2013-11-30 17:08:00,
2013-11-30 11:14:00,44.2,30.0,29.37,NNW,333,0.0,1.0,57,0.00,,---,0.00,VWS V12.08,2013-11-30 17:14:00,
2013-11-30 11:20:00,44.1,29.9,29.36,North,349,0.0,1.0,57,0.00,,---,0.00,VWS V12.08,2013-11-30 17:20:00,
2013-11-30 11:25:00,44.4,30.6,29.36,WNW,286,0.0,1.0,58,0.00,,---,0.00,VWS V12.08,2013-11-30 17:25:00,
2013-11-30 11:30:00,44.7,30.4,29.36,SW,220,0.0,0.0,57,0.00,,---,0.00,VWS V12.08,2013-11-30 17:30:00,
2013-11-30 11:36:00,45.0,30.7,29.36,West,276,0.0,2.0,57,0.00,,---,0.00,VWS V12.08,2013-11-30 17:36:00,
2013-11-30 11:42:00,45.1,30.8,29.36,NNW,331,0.0,2.0,57,0.00,,---,0.00,VWS V12.08,2013-11-30 17:42:00,
2013-11-30 11:47:00,45.3,30.5,29.35,West,271,0.0,2.0,56,0.00,,---,0.00,VWS V12.08,2013-11-30 17:47:00,
2013-11-30 11:52:00,45.7,30.9,29.35,North,356,0.0,2.0,56,0.00,,---,0.00,VWS V12.08,2013-11-30 17:52:00,
2013-11-30 11:58:00,46.1,31.3,29.35,North,0,0.0,2.0,56,0.00,,---,0.00,VWS V12.08,2013-11-30 17:58:00,
2013-11-30 12:03:00,46.5,31.2,29.35,NNW,345,0.0,1.0,55,0.00,,---,0.00,VWS V12.08,2013-11-30 18:03:00,
2013-11-30 12:08:00,46.5,31.2,29.35,NNW,338,0.0,1.0,55,0.00,,---,0.00,VWS V12.08,2013-11-30 18:08:00,
2013-11-30 12:13:00,46.7,31.4,29.35,NNW,338,0.0,1.0,55,0.00,,---,0.00,VWS V12.08,2013-11-30 18:13:00,
2013-11-30 12:18:00,47.0,31.2,29.35,North,0,0.0,1.0,54,0.00,,---,0.00,VWS V12.08,2013-11-30 18:18:00,
2013-11-30 12:23:00,47.0,31.2,29.34,NNW,341,0.0,1.0,54,0.00,,---,0.00,VWS V12.08,2013-11-30 18:23:00,
2013-11-30 12:29:00,47.1,30.9,29.34,West,280,0.0,1.0,53,0.00,,---,0.00,VWS V12.08,2013-11-30 18:29:00,
2013-11-30 12:34:00,47.2,31.4,29.34,North,0,0.0,1.0,54,0.00,,---,0.00,VWS V12.08,2013-11-30 18:34:00,
2013-11-30 12:39:00,47.6,31.8,29.33,West,268,1.0,1.0,54,0.00,,---,0.00,VWS V12.08,2013-11-30 18:39:00,
2013-11-30 12:44:00,47.6,31.3,29.33,NW,319,0.0,2.0,53,0.00,,---,0.00,VWS V12.08,2013-11-30 18:44:00,
2013-11-30 12:49:00,47.4,31.1,29.33,North,350,0.0,2.0,53,0.00,,---,0.00,VWS V12.08,2013-11-30 18:49:00,
2013-11-30 12:55:00,47.7,31.9,29.32,North,354,0.0,2.0,54,0.00,,---,0.00,VWS V12.08,2013-11-30 18:55:00,
2013-11-30 13:00:00,48.0,31.7,29.33,SW,228,0.0,2.0,53,0.00,,---,0.00,VWS V12.08,2013-11-30 19:00:00,
2013-11-30 13:05:00,48.1,31.8,29.33,North,354,0.0,1.0,53,0.00,,---,0.00,VWS V12.08,2013-11-30 19:05:00,
2013-11-30 13:10:00,48.3,32.0,29.32,West,259,0.0,1.0,53,0.00,,---,0.00,VWS V12.08,2013-11-30 19:10:00,
2013-11-30 13:15:00,48.4,32.1,29.32,North,0,0.0,1.0,53,0.00,,---,0.00,VWS V12.08,2013-11-30 19:15:00,
2013-11-30 13:20:00,48.7,32.3,29.32,NNW,337,0.0,1.0,53,0.00,,---,0.00,VWS V12.08,2013-11-30 19:20:00,
2013-11-30 13:25:00,48.7,31.9,29.32,North,356,0.0,1.0,52,0.00,,---,0.00,VWS V12.08,2013-11-30 19:25:00,
2013-11-30 13:30:00,48.8,32.0,29.32,West,281,0.0,1.0,52,0.00,,---,0.00,VWS V12.08,2013-11-30 19:30:00,
2013-11-30 13:35:00,48.9,32.1,29.32,WSW,255,0.0,1.0,52,0.00,,---,0.00,VWS V12.08,2013-11-30 19:35:00,
2013-11-30 13:40:00,49.3,32.4,29.32,NW,326,1.0,1.0,52,0.00,,---,0.00,VWS V12.08,2013-11-30 19:40:00,
2013-11-30 13:45:00,49.2,32.3,29.31,NNW,345,0.0,1.0,52,0.00,,---,0.00,VWS V12.08,2013-11-30 19:45:00,
2013-11-30 13:50:00,49.6,32.7,29.31,NNW,341,0.0,1.0,52,0.00,,---,0.00,VWS V12.08,2013-11-30 19:50:00,
2013-11-30 13:55:00,49.6,32.7,29.31,NW,320,1.0,1.0,52,0.00,,---,0.00,VWS V12.08,2013-11-30 19:55:00,
2013-11-30 14:00:00,49.6,32.2,29.31,NW,322,0.0,0.0,51,0.00,,---,0.00,VWS V12.08,2013-11-30 20:00:00,
2013-11-30 14:05:00,49.9,33.0,29.31,NNW,328,0.0,1.0,52,0.00,,---,0.00,VWS V12.08,2013-11-30 20:05:00,
2013-11-30 14:10:00,50.3,32.9,29.31,NW,313,0.0,1.0,51,0.00,,---,0.00,VWS V12.08,2013-11-30 20:10:00,
2013-11-30 14:17:00,50.4,33.0,29.31,NNW,345,1.0,1.0,51,0.00,,---,0.00,VWS V12.08,2013-11-30 20:17:00,
2013-11-30 14:23:00,50.5,32.6,29.31,North,352,0.0,1.0,50,0.00,,---,0.00,VWS V12.08,2013-11-30 20:23:00,
2013-11-30 14:28:00,50.5,32.6,29.31,NW,325,0.0,1.0,50,0.00,,---,0.00,VWS V12.08,2013-11-30 20:28:00,
2013-11-30 14:34:00,50.3,32.4,29.31,North,354,0.0,1.0,50,0.00,,---,0.00,VWS V12.08,2013-11-30 20:34:00,
2013-11-30 14:39:00,50.3,32.9,29.31,NW,317,0.0,1.0,51,0.00,,---,0.00,VWS V12.08,2013-11-30 20:39:00,
2013-11-30 14:45:00,50.5,33.1,29.31,NNW,346,0.0,1.0,51,0.00,,---,0.00,VWS V12.08,2013-11-30 20:45:00,
2013-11-30 14:50:00,50.8,32.8,29.31,NNW,335,1.0,1.0,50,0.00,,---,0.00,VWS V12.08,2013-11-30 20:50:00,
2013-11-30 14:56:00,50.8,32.8,29.30,NW,317,1.0,1.0,50,0.00,,---,0.00,VWS V12.08,2013-11-30 20:56:00,
2013-11-30 15:01:00,50.8,32.8,29.30,North,352,0.0,1.0,50,0.00,,---,0.00,VWS V12.08,2013-11-30 21:01:00,
2013-11-30 15:06:00,50.8,33.3,29.30,North,353,1.0,1.0,51,0.00,,---,0.00,VWS V12.08,2013-11-30 21:06:00,
2013-11-30 15:12:00,50.7,33.2,29.31,NNW,343,1.0,1.0,51,0.00,,---,0.00,VWS V12.08,2013-11-30 21:12:00,
2013-11-30 15:17:00,50.8,33.3,29.31,North,354,0.0,1.0,51,0.00,,---,0.00,VWS V12.08,2013-11-30 21:17:00,
2013-11-30 15:22:00,50.8,33.3,29.31,North,0,0.0,1.0,51,0.00,,---,0.00,VWS V12.08,2013-11-30 21:22:00,
2013-11-30 15:27:00,50.9,33.4,29.31,North,349,0.0,1.0,51,0.00,,---,0.00,VWS V12.08,2013-11-30 21:27:00,
2013-11-30 15:32:00,50.9,33.4,29.31,NNW,333,0.0,1.0,51,0.00,,---,0.00,VWS V12.08,2013-11-30 21:32:00,
2013-11-30 15:37:00,51.1,33.6,29.31,North,351,0.0,1.0,51,0.00,,---,0.00,VWS V12.08,2013-11-30 21:37:00,
2013-11-30 15:42:00,51.1,33.6,29.31,North,355,0.0,1.0,51,0.00,,---,0.00,VWS V12.08,2013-11-30 21:42:00,
2013-11-30 15:47:00,51.1,33.6,29.31,NNW,342,0.0,1.0,51,0.00,,---,0.00,VWS V12.08,2013-11-30 21:47:00,
2013-11-30 15:53:00,50.8,33.3,29.32,North,0,0.0,1.0,51,0.00,,---,0.00,VWS V12.08,2013-11-30 21:53:00,
2013-11-30 15:58:00,50.8,33.8,29.32,NW,320,0.0,1.0,52,0.00,,---,0.00,VWS V12.08,2013-11-30 21:58:00,
2013-11-30 16:03:00,50.8,33.8,29.32,WNW,287,0.0,0.0,52,0.00,,---,0.00,VWS V12.08,2013-11-30 22:03:00,
2013-11-30 16:09:00,50.6,33.6,29.32,WNW,287,0.0,0.0,52,0.00,,---,0.00,VWS V12.08,2013-11-30 22:09:00,
2013-11-30 16:14:00,50.4,33.5,29.32,WNW,290,1.0,1.0,52,0.00,,---,0.00,VWS V12.08,2013-11-30 22:14:00,
2013-11-30 16:19:00,50.1,33.7,29.32,North,0,0.0,1.0,53,0.00,,---,0.00,VWS V12.08,2013-11-30 22:19:00,
2013-11-30 16:24:00,49.9,33.5,29.33,NNW,329,0.0,1.0,53,0.00,,---,0.00,VWS V12.08,2013-11-30 22:24:00,
2013-11-30 16:30:00,49.4,33.0,29.32,North,0,0.0,1.0,53,0.00,,---,0.00,VWS V12.08,2013-11-30 22:30:00,
2013-11-30 16:35:00,49.0,33.1,29.32,North,0,0.0,0.0,54,0.00,,---,0.00,VWS V12.08,2013-11-30 22:35:00,
2013-11-30 16:40:00,48.7,32.8,29.32,NNW,345,0.0,0.0,54,0.00,,---,0.00,VWS V12.08,2013-11-30 22:40:00,
2013-11-30 16:45:00,48.4,33.0,29.32,WNW,301,0.0,0.0,55,0.00,,---,0.00,VWS V12.08,2013-11-30 22:45:00,
2013-11-30 16:50:00,48.2,32.8,29.32,North,0,0.0,0.0,55,0.00,,---,0.00,VWS V12.08,2013-11-30 22:50:00,
2013-11-30 16:55:00,47.8,32.9,29.32,North,0,0.0,0.0,56,0.00,,---,0.00,VWS V12.08,2013-11-30 22:55:00,
2013-11-30 17:01:00,47.6,32.7,29.33,North,0,0.0,0.0,56,0.00,,---,0.00,VWS V12.08,2013-11-30 23:01:00,
2013-11-30 17:07:00,47.3,32.8,29.33,North,0,0.0,0.0,57,0.00,,---,0.00,VWS V12.08,2013-11-30 23:07:00,
2013-11-30 17:12:00,47.1,32.7,29.33,North,0,0.0,0.0,57,0.00,,---,0.00,VWS V12.08,2013-11-30 23:12:00,
2013-11-30 17:17:00,47.0,32.6,29.33,North,0,0.0,0.0,57,0.00,,---,0.00,VWS V12.08,2013-11-30 23:17:00,
2013-11-30 17:23:00,46.6,32.6,29.33,North,0,0.0,0.0,58,0.00,,---,0.00,VWS V12.08,2013-11-30 23:23:00,
2013-11-30 17:28:00,46.4,32.4,29.33,North,0,0.0,0.0,58,0.00,,---,0.00,VWS V12.08,2013-11-30 23:28:00,
2013-11-30 17:33:00,46.1,32.2,29.34,NW,315,0.0,0.0,58,0.00,,---,0.00,VWS V12.08,2013-11-30 23:33:00,
2013-11-30 17:38:00,45.7,31.8,29.33,North,0,0.0,0.0,58,0.00,,---,0.00,VWS V12.08,2013-11-30 23:38:00,
2013-11-30 17:43:00,45.0,32.0,29.34,North,0,0.0,0.0,60,0.00,,---,0.00,VWS V12.08,2013-11-30 23:43:00,
2013-11-30 17:48:00,44.6,31.6,29.34,North,0,0.0,0.0,60,0.00,,---,0.00,VWS V12.08,2013-11-30 23:48:00,
2013-11-30 17:54:00,44.7,32.1,29.34,North,0,0.0,0.0,61,0.00,,---,0.00,VWS V12.08,2013-11-30 23:54:00,
2013-11-30 17:59:00,44.7,32.1,29.34,North,0,0.0,0.0,61,0.00,,---,0.00,VWS V12.08,2013-11-30 23:59:00,
2013-11-30 18:04:00,44.6,32.0,29.34,North,0,0.0,0.0,61,0.00,,---,0.00,VWS V12.08,2013-12-01 00:04:00,
2013-11-30 18:10:00,44.6,32.0,29.34,North,0,0.0,0.0,61,0.00,,---,0.00,VWS V12.08,2013-12-01 00:10:00,
2013-11-30 18:15:00,44.6,32.0,29.34,North,0,0.0,0.0,61,0.00,,---,0.00,VWS V12.08,2013-12-01 00:15:00,
2013-11-30 18:20:00,44.6,32.0,29.34,NW,324,0.0,0.0,61,0.00,,---,0.00,VWS V12.08,2013-12-01 00:20:00,
2013-11-30 18:25:00,44.5,32.3,29.34,WNW,292,0.0,0.0,62,0.00,,---,0.00,VWS V12.08,2013-12-01 00:25:00,
2013-11-30 18:31:00,44.5,32.3,29.34,WNW,295,0.0,0.0,62,0.00,,---,0.00,VWS V12.08,2013-12-01 00:31:00,
2013-11-30 18:36:00,44.5,32.3,29.34,North,0,0.0,0.0,62,0.00,,---,0.00,VWS V12.08,2013-12-01 00:36:00,
2013-11-30 18:41:00,44.4,32.2,29.34,NW,317,0.0,0.0,62,0.00,,---,0.00,VWS V12.08,2013-12-01 00:41:00,
2013-11-30 18:47:00,44.3,32.1,29.35,North,352,0.0,0.0,62,0.00,,---,0.00,VWS V12.08,2013-12-01 00:47:00,
2013-11-30 18:52:00,44.1,31.9,29.34,North,0,0.0,0.0,62,0.00,,---,0.00,VWS V12.08,2013-12-01 00:52:00,
2013-11-30 18:57:00,44.0,32.2,29.34,North,0,0.0,0.0,63,0.00,,---,0.00,VWS V12.08,2013-12-01 00:57:00,
2013-11-30 19:03:00,43.9,32.1,29.34,NNW,330,0.0,0.0,63,0.00,,---,0.00,VWS V12.08,2013-12-01 01:03:00,
2013-11-30 19:08:00,43.9,32.1,29.34,NNW,345,0.0,0.0,63,0.00,,---,0.00,VWS V12.08,2013-12-01 01:08:00,
2013-11-30 19:13:00,43.8,32.0,29.34,North,357,0.0,0.0,63,0.00,,---,0.00,VWS V12.08,2013-12-01 01:13:00,
2013-11-30 19:19:00,43.7,32.0,29.34,North,0,0.0,0.0,63,0.00,,---,0.00,VWS V12.08,2013-12-01 01:19:00,
2013-11-30 19:24:00,43.5,31.8,29.35,North,0,0.0,0.0,63,0.00,,---,0.00,VWS V12.08,2013-12-01 01:24:00,
2013-11-30 19:29:00,43.3,31.6,29.35,NNW,343,0.0,0.0,63,0.00,,---,0.00,VWS V12.08,2013-12-01 01:29:00,
2013-11-30 19:34:00,43.1,31.8,29.34,North,0,0.0,0.0,64,0.00,,---,0.00,VWS V12.08,2013-12-01 01:34:00,
2013-11-30 19:39:00,42.8,31.5,29.35,North,0,0.0,0.0,64,0.00,,---,0.00,VWS V12.08,2013-12-01 01:39:00,
2013-11-30 19:43:00,42.7,31.8,29.35,North,0,0.0,0.0,65,0.00,,---,0.00,VWS V12.08,2013-12-01 01:43:00,
2013-11-30 19:48:00,42.7,31.8,29.35,North,350,0.0,0.0,65,0.00,,---,0.00,VWS V12.08,2013-12-01 01:48:00,
2013-11-30 19:53:00,42.5,31.6,29.34,NNW,344,0.0,0.0,65,0.00,,---,0.00,VWS V12.08,2013-12-01 01:53:00,
2013-11-30 19:59:00,42.2,31.7,29.35,North,0,0.0,0.0,66,0.00,,---,0.00,VWS V12.08,2013-12-01 01:59:00,
2013-11-30 20:04:00,42.0,31.5,29.35,North,0,0.0,0.0,66,0.00,,---,0.00,VWS V12.08,2013-12-01 02:04:00,
2013-11-30 20:10:00,41.8,31.3,29.35,North,0,0.0,0.0,66,0.00,,---,0.00,VWS V12.08,2013-12-01 02:10:00,
2013-11-30 20:15:00,41.6,31.1,29.34,North,0,0.0,0.0,66,0.00,,---,0.00,VWS V12.08,2013-12-01 02:15:00,
2013-11-30 20:20:00,41.2,31.1,29.34,North,359,0.0,0.0,67,0.00,,---,0.00,VWS V12.08,2013-12-01 02:20:00,
2013-11-30 20:25:00,41.0,30.9,29.34,North,0,0.0,0.0,67,0.00,,---,0.00,VWS V12.08,2013-12-01 02:25:00,
2013-11-30 20:30:00,40.8,31.1,29.34,North,351,0.0,0.0,68,0.00,,---,0.00,VWS V12.08,2013-12-01 02:30:00,
2013-11-30 20:36:00,40.4,30.7,29.34,North,0,0.0,0.0,68,0.00,,---,0.00,VWS V12.08,2013-12-01 02:36:00,
2013-11-30 20:41:00,40.2,30.9,29.34,NNW,347,0.0,0.0,69,0.00,,---,0.00,VWS V12.08,2013-12-01 02:41:00,
2013-11-30 20:46:00,40.1,30.8,29.35,NNW,327,0.0,0.0,69,0.00,,---,0.00,VWS V12.08,2013-12-01 02:46:00,
2013-11-30 20:51:00,40.0,30.7,29.35,North,0,0.0,0.0,69,0.00,,---,0.00,VWS V12.08,2013-12-01 02:51:00,
2013-11-30 20:56:00,39.8,30.8,29.34,North,358,0.0,0.0,70,0.00,,---,0.00,VWS V12.08,2013-12-01 02:56:00,
2013-11-30 21:01:00,39.7,30.7,29.35,NNW,330,0.0,0.0,70,0.00,,---,0.00,VWS V12.08,2013-12-01 03:01:00,
2013-11-30 21:06:00,39.7,30.7,29.35,NNW,336,0.0,0.0,70,0.00,,---,0.00,VWS V12.08,2013-12-01 03:06:00,
2013-11-30 21:12:00,39.7,30.7,29.35,North,0,0.0,0.0,70,0.00,,---,0.00,VWS V12.08,2013-12-01 03:12:00,
2013-11-30 21:18:00,39.5,30.5,29.35,North,0,0.0,0.0,70,0.00,,---,0.00,VWS V12.08,2013-12-01 03:18:00,
2013-11-30 21:23:00,39.4,30.8,29.35,North,0,0.0,0.0,71,0.00,,---,0.00,VWS V12.08,2013-12-01 03:23:00,
2013-11-30 21:29:00,39.2,30.2,29.35,North,0,0.0,0.0,70,0.00,,---,0.00,VWS V12.08,2013-12-01 03:29:00,
2013-11-30 21:34:00,38.9,30.3,29.35,North,0,0.0,0.0,71,0.00,,---,0.00,VWS V12.08,2013-12-01 03:34:00,
2013-11-30 21:39:00,38.6,30.0,29.35,WNW,290,0.0,0.0,71,0.00,,---,0.00,VWS V12.08,2013-12-01 03:39:00,
2013-11-30 21:44:00,38.3,29.7,29.35,WNW,290,0.0,0.0,71,0.00,,---,0.00,VWS V12.08,2013-12-01 03:44:00,
2013-11-30 21:49:00,38.2,30.0,29.35,WNW,290,0.0,0.0,72,0.00,,---,0.00,VWS V12.08,2013-12-01 03:49:00,
2013-11-30 21:54:00,37.8,29.6,29.35,WNW,290,0.0,0.0,72,0.00,,---,0.00,VWS V12.08,2013-12-01 03:54:00,
2013-11-30 21:59:00,37.2,29.0,29.35,WNW,290,0.0,0.0,72,0.00,,---,0.00,VWS V12.08,2013-12-01 03:59:00,
2013-11-30 22:04:00,36.6,28.4,29.35,WNW,290,0.0,0.0,72,0.00,,---,0.00,VWS V12.08,2013-12-01 04:04:00,
2013-11-30 22:09:00,36.3,28.5,29.35,North,0,0.0,0.0,73,0.00,,---,0.00,VWS V12.08,2013-12-01 04:09:00,
2013-11-30 22:14:00,35.9,28.1,29.35,North,0,0.0,0.0,73,0.00,,---,0.00,VWS V12.08,2013-12-01 04:14:00,
2013-11-30 22:19:00,35.8,28.3,29.35,North,0,0.0,0.0,74,0.00,,---,0.00,VWS V12.08,2013-12-01 04:19:00,
2013-11-30 22:24:00,35.9,28.8,29.35,North,0,0.0,0.0,75,0.00,,---,0.00,VWS V12.08,2013-12-01 04:24:00,
2013-11-30 22:29:00,36.2,29.4,29.35,North,0,0.0,0.0,76,0.00,,---,0.00,VWS V12.08,2013-12-01 04:29:00,
2013-11-30 22:35:00,36.2,29.0,29.35,North,0,0.0,0.0,75,0.00,,---,0.00,VWS V12.08,2013-12-01 04:35:00,
2013-11-30 22:40:00,36.1,29.0,29.35,North,0,0.0,0.0,75,0.00,,---,0.00,VWS V12.08,2013-12-01 04:40:00,
2013-11-30 22:45:00,35.9,29.1,29.36,North,0,0.0,0.0,76,0.00,,---,0.00,VWS V12.08,2013-12-01 04:45:00,
2013-11-30 22:50:00,35.8,29.0,29.35,North,0,0.0,0.0,76,0.00,,---,0.00,VWS V12.08,2013-12-01 04:50:00,
2013-11-30 22:55:00,35.6,28.8,29.35,North,0,0.0,0.0,76,0.00,,---,0.00,VWS V12.08,2013-12-01 04:55:00,
2013-11-30 23:00:00,35.4,28.6,29.36,North,0,0.0,0.0,76,0.00,,---,0.00,VWS V12.08,2013-12-01 05:00:00,
2013-11-30 23:01:00,35.3,28.5,29.36,North,0,0.0,0.0,76,0.00,,---,0.00,VWS V12.08,2013-12-01 05:01:00,
2013-11-30 23:02:00,35.3,28.5,29.36,North,0,0.0,0.0,76,0.00,,---,0.00,VWS V12.08,2013-12-01 05:02:00,
2013-11-30 23:04:00,35.2,28.4,29.35,North,0,0.0,0.0,76,0.00,,---,0.00,VWS V12.08,2013-12-01 05:04:00,
2013-11-30 23:05:00,35.2,28.4,29.35,North,0,0.0,0.0,76,0.00,,---,0.00,VWS V12.08,2013-12-01 05:05:00,
2013-11-30 23:07:00,35.1,28.3,29.35,North,0,0.0,0.0,76,0.00,,---,0.00,VWS V12.08,2013-12-01 05:07:00,
2013-11-30 23:12:00,34.8,28.0,29.36,North,0,0.0,0.0,76,0.00,,---,0.00,VWS V12.08,2013-12-01 05:12:00,
2013-11-30 23:15:00,34.7,28.2,29.36,North,0,0.0,0.0,77,0.00,,---,0.00,VWS V12.08,2013-12-01 05:15:00,
2013-11-30 23:21:00,34.3,27.9,29.36,North,0,0.0,0.0,77,0.00,,---,0.00,VWS V12.08,2013-12-01 05:21:00,
2013-11-30 23:26:00,34.3,28.2,29.36,North,0,0.0,0.0,78,0.00,,---,0.00,VWS V12.08,2013-12-01 05:26:00,
2013-11-30 23:31:00,34.1,28.0,29.37,NW,309,0.0,0.0,78,0.00,,---,0.00,VWS V12.08,2013-12-01 05:31:00,
2013-11-30 23:37:00,33.8,27.7,29.36,NNW,332,0.0,0.0,78,0.00,,---,0.00,VWS V12.08,2013-12-01 05:37:00,
2013-11-30 23:43:00,33.6,27.5,29.36,NW,319,0.0,0.0,78,0.00,,---,0.00,VWS V12.08,2013-12-01 05:43:00,
2013-11-30 23:49:00,33.4,27.6,29.37,NNW,331,0.0,0.0,79,0.00,,---,0.00,VWS V12.08,2013-12-01 05:49:00,
2013-11-30 23:54:00,33.1,27.3,29.37,NW,305,0.0,0.0,79,0.00,,---,0.00,VWS V12.08,2013-12-01 05:54:00,
2013-11-30 23:59:00,32.9,27.4,29.36,North,0,0.0,0.0,80,0.00,,---,0.00,VWS V12.08,2013-12-01 05:59:00,